Météo par heure à Kistochkivka

Ce jour, 6 Mars, Samedi

Heure Température Précipitation Vent Pression Humidité
00:00 +5°C° 0 mm 3 m/s 756 mmHg 73%
01:00 +5°C° 0 mm 3 m/s 756 mmHg 73%
02:00 +5°C° 0 mm 3 m/s 756 mmHg 72%
03:00 +5°C° 0 mm 3 m/s 755 mmHg 67%
04:00 +5°C° 0 mm 3 m/s 755 mmHg 62%
05:00 +5°C° 0 mm 3 m/s 754 mmHg 57%
06:00 +6°C° 0 mm 4 m/s 755 mmHg 60%
07:00 +7°C° 0 mm 4 m/s 755 mmHg 64%
08:00 +8°C° 0 mm 4 m/s 755 mmHg 67%
09:00 +9°C° 0 mm 5 m/s 755 mmHg 66%
10:00 +9°C° 0 mm 6 m/s 755 mmHg 65%
11:00 +10°C° 0 mm 6 m/s 756 mmHg 64%
12:00 +8°C° 0 mm 7 m/s 756 mmHg 70%
13:00 +5°C° 0 mm 7 m/s 757 mmHg 75%
14:00 +1°C° 0 mm 8 m/s 757 mmHg 80%
15:00 +1°C° 0.1 mm 8 m/s 758 mmHg 78%
16:00 0°C° 0.1 mm 7 m/s 759 mmHg 77%
17:00 0°C° 0.1 mm 7 m/s 760 mmHg 75%
18:00 -1°C° 0 mm 6 m/s 761 mmHg 71%
19:00 -1°C° 0 mm 6 m/s 762 mmHg 66%
20:00 -2°C° 0 mm 6 m/s 763 mmHg 62%
21:00 -1°C° 0 mm 5 m/s 763 mmHg 62%
22:00 -2°C° 0 mm 4 m/s 764 mmHg 62%
23:00 -3°C° 0 mm 4 m/s 765 mmHg 62%

Demain, 7 Mars, Dimanche

Heure Température Précipitation Vent Pression Humidité
00:00 -2°C° 0 mm 3 m/s 765 mmHg 64%
01:00 -2°C° 0 mm 3 m/s 765 mmHg 65%
02:00 -4°C° 0 mm 3 m/s 766 mmHg 66%
03:00 -4°C° 0 mm 3 m/s 766 mmHg 65%
04:00 -3°C° 0 mm 2 m/s 766 mmHg 65%
05:00 -3°C° 0 mm 2 m/s 766 mmHg 65%
06:00 -4°C° 0 mm 3 m/s 766 mmHg 58%
07:00 -2°C° 0 mm 3 m/s 766 mmHg 51%
08:00 -1°C° 0 mm 3 m/s 766 mmHg 45%
09:00 -1°C° 0 mm 4 m/s 766 mmHg 42%
10:00 0°C° 0 mm 4 m/s 765 mmHg 38%
11:00 +3°C° 0 mm 4 m/s 765 mmHg 35%
12:00 +2°C° 0 mm 5 m/s 765 mmHg 37%
13:00 +2°C° 0 mm 5 m/s 764 mmHg 40%
14:00 +3°C° 0 mm 6 m/s 764 mmHg 42%
15:00 +2°C° 0 mm 6 m/s 763 mmHg 46%
16:00 +2°C° 0 mm 5 m/s 763 mmHg 50%
17:00 +1°C° 0 mm 5 m/s 762 mmHg 53%
18:00 0°C° 0 mm 5 m/s 762 mmHg 57%
19:00 -1°C° 0 mm 4 m/s 762 mmHg 61%
20:00 -1°C° 0 mm 4 m/s 762 mmHg 64%
21:00 -2°C° 0 mm 4 m/s 762 mmHg 64%
22:00 -2°C° 0 mm 4 m/s 761 mmHg 63%
23:00 -2°C° 0 mm 4 m/s 761 mmHg 62%

Après-demain, 8 Mars, Lundi

Heure Température Précipitation Vent Pression Humidité
00:00 -2°C° 0 mm 4 m/s 761 mmHg 61%
01:00 -2°C° 0 mm 4 m/s 760 mmHg 61%
02:00 -2°C° 0 mm 5 m/s 760 mmHg 60%
03:00 -2°C° 0 mm 5 m/s 760 mmHg 61%
04:00 -2°C° 0 mm 5 m/s 759 mmHg 62%
05:00 -2°C° 0 mm 5 m/s 759 mmHg 62%
06:00 0°C° 0 mm 5 m/s 759 mmHg 61%
07:00 +1°C° 0 mm 6 m/s 759 mmHg 60%
08:00 +2°C° 0 mm 6 m/s 759 mmHg 58%
09:00 +3°C° 0 mm 6 m/s 758 mmHg 57%
10:00 +4°C° 0 mm 7 m/s 758 mmHg 56%
11:00 +5°C° 0 mm 7 m/s 758 mmHg 55%
12:00 +5°C° 0.1 mm 7 m/s 757 mmHg 57%
13:00 +5°C° 0.1 mm 7 m/s 757 mmHg 59%
14:00 +5°C° 0.1 mm 7 m/s 757 mmHg 61%
15:00 +4°C° 0.1 mm 7 m/s 757 mmHg 65%
16:00 +4°C° 0.1 mm 6 m/s 756 mmHg 69%
17:00 +3°C° 0.1 mm 5 m/s 756 mmHg 73%
18:00 +4°C° 0 mm 4 m/s 756 mmHg 74%
19:00 +3°C° 0 mm 4 m/s 757 mmHg 76%
20:00 +2°C° 0 mm 3 m/s 757 mmHg 77%
21:00 +2°C° 0 mm 3 m/s 757 mmHg 78%
22:00 +1°C° 0 mm 3 m/s 757 mmHg 78%
23:00 +1°C° 0 mm 3 m/s 757 mmHg 79%

9 Mars, Mardi

Heure Température Précipitation Vent Pression Humidité
00:00 +1°C° 0 mm 3 m/s 757 mmHg 79%
01:00 0°C° 0 mm 3 m/s 757 mmHg 79%
02:00 0°C° 0 mm 3 m/s 757 mmHg 79%
03:00 0°C° 0 mm 3 m/s 757 mmHg 81%
04:00 0°C° 0 mm 3 m/s 758 mmHg 82%
05:00 -1°C° 0 mm 3 m/s 758 mmHg 83%
06:00 0°C° 0 mm 3 m/s 758 mmHg 81%
07:00 0°C° 0 mm 3 m/s 759 mmHg 78%
08:00 +1°C° 0 mm 3 m/s 759 mmHg 76%
09:00 +1°C° 0 mm 3 m/s 760 mmHg 67%
10:00 +2°C° 0 mm 3 m/s 760 mmHg 58%
11:00 +3°C° 0 mm 3 m/s 760 mmHg 49%
12:00 +4°C° 0 mm 4 m/s 760 mmHg 45%
13:00 +4°C° 0 mm 4 m/s 760 mmHg 42%
14:00 +5°C° 0 mm 4 m/s 760 mmHg 39%
15:00 +4°C° 0 mm 4 m/s 760 mmHg 40%
16:00 +4°C° 0 mm 3 m/s 760 mmHg 41%
17:00 +3°C° 0 mm 3 m/s 760 mmHg 42%
18:00 +2°C° 0 mm 3 m/s 761 mmHg 46%
19:00 +2°C° 0 mm 2 m/s 761 mmHg 50%
20:00 +2°C° 0 mm 1 m/s 762 mmHg 55%
21:00 +2°C° 0 mm 1 m/s 762 mmHg 57%
22:00 +2°C° 0 mm 1 m/s 762 mmHg 59%
23:00 +1°C° 0 mm 1 m/s 762 mmHg 61%

10 Mars, Mercredi

Heure Température Précipitation Vent Pression Humidité
00:00 +1°C° 0 mm 1 m/s 762 mmHg 63%
01:00 -1°C° 0 mm 2 m/s 762 mmHg 65%
02:00 -1°C° 0 mm 2 m/s 762 mmHg 67%
03:00 -1°C° 0 mm 2 m/s 762 mmHg 69%
04:00 -2°C° 0 mm 2 m/s 761 mmHg 71%
05:00 -2°C° 0 mm 2 m/s 761 mmHg 73%
06:00 -1°C° 0 mm 2 m/s 761 mmHg 71%
07:00 +1°C° 0 mm 2 m/s 761 mmHg 68%
08:00 +1°C° 0 mm 3 m/s 761 mmHg 66%
09:00 +1°C° 0 mm 3 m/s 761 mmHg 64%
10:00 +2°C° 0 mm 3 m/s 761 mmHg 62%
11:00 +3°C° 0 mm 3 m/s 761 mmHg 59%
12:00 +3°C° 0 mm 3 m/s 761 mmHg 61%
13:00 +3°C° 0 mm 3 m/s 760 mmHg 63%
14:00 +3°C° 0 mm 3 m/s 760 mmHg 65%
15:00 +2°C° 0.1 mm 3 m/s 760 mmHg 68%
16:00 +1°C° 0.1 mm 3 m/s 760 mmHg 72%
17:00 +1°C° 0.1 mm 3 m/s 760 mmHg 75%
18:00 0°C° 0 mm 3 m/s 760 mmHg 77%
19:00 +1°C° 0 mm 2 m/s 760 mmHg 78%
20:00 -1°C° 0 mm 2 m/s 760 mmHg 80%
21:00 -1°C° 0 mm 2 m/s 760 mmHg 80%
22:00 +1°C° 0 mm 1 m/s 761 mmHg 80%
23:00 +1°C° 0 mm 1 m/s 761 mmHg 80%

11 Mars, Jeudi

Heure Température Précipitation Vent Pression Humidité
00:00 0°C° 0 mm 1 m/s 761 mmHg 80%
01:00 0°C° 0 mm 1 m/s 761 mmHg 79%
02:00 0°C° 0 mm 1 m/s 761 mmHg 78%
03:00 0°C° 0 mm 1 m/s 761 mmHg 78%
04:00 -1°C° 0 mm 1 m/s 761 mmHg 79%
05:00 -1°C° 0 mm 1 m/s 761 mmHg 79%
06:00 -2°C° 0 mm 2 m/s 762 mmHg 72%
07:00 -1°C° 0 mm 2 m/s 762 mmHg 66%
08:00 -1°C° 0 mm 3 m/s 762 mmHg 60%
09:00 0°C° 0 mm 3 m/s 763 mmHg 52%
10:00 0°C° 0 mm 4 m/s 763 mmHg 44%
11:00 +1°C° 0 mm 4 m/s 763 mmHg 35%
12:00 +1°C° 0 mm 4 m/s 763 mmHg 35%
13:00 +3°C° 0 mm 4 m/s 763 mmHg 34%
14:00 +3°C° 0 mm 4 m/s 763 mmHg 33%
15:00 +3°C° 0 mm 4 m/s 763 mmHg 35%
16:00 +2°C° 0 mm 3 m/s 763 mmHg 37%
17:00 +2°C° 0 mm 3 m/s 764 mmHg 39%
18:00 +2°C° 0 mm 2 m/s 764 mmHg 43%
19:00 +2°C° 0 mm 1 m/s 764 mmHg 47%
20:00 +1°C° 0 mm 1 m/s 764 mmHg 50%
21:00 +1°C° 0 mm 1 m/s 764 mmHg 51%
22:00 +1°C° 0 mm 1 m/s 765 mmHg 51%
23:00 0°C° 0 mm 1 m/s 765 mmHg 52%
Voir plus

Nous avons besoin de votre consentement

Meteoprog et ses fournisseurs de services peuvent stocker et accéder à des données personnelles telles que des cookies, des identifiants d'appareils ou d'autres technologies similaires sur votre appareil et traiter ces données pour personnaliser le contenu et les publicités, ainsi que pour fournir des fonctionnalités de médias sociaux et analyser le trafic.

  • Stocker et/ou accéder à des informations sur votre appareil

    Des cookies, des identifiants d'appareils ou d'autres informations peuvent être stockés ou accessibles sur votre appareil aux fins indiquées ci-dessus.

  • Annonces et contenus personnalisés, mesure des annonces et des contenus, connaissance de l'audience et développement de produits

    Les annonces et le contenu peuvent être personnalisés en fonction d'un profil. D'autres données peuvent être ajoutées pour mieux personnaliser les annonces et le contenu. Les performances des publicités et du contenu peuvent être mesurées. Il est possible d'obtenir des informations sur le public qui a vu les publicités et le contenu. Ces données peuvent être utilisées pour développer ou améliorer l'expérience de l'utilisateur, les systèmes et les logiciels.

En cliquant sur "J'accepte", vous autorisez l'utilisation de cookies, des identifiants d'appareils, des balises web ou d'autres technologies similaires. Vos paramètres peuvent être modifiés dans le navigateur de votre appareil.

Dans certains cas, des intérêts légitimes peuvent être invoqués plutôt qu'un consentement. Vous pouvez en savoir plus à ce sujet dans notre Politique de confidentialité et de cookies.